DateTimeUTC,F1_A11,F1_S11,BsB_S11,BsG_S11,BsR_S11,BbsB_S11,BbsG_S11,BbsR_S11,BaB_A11,BaG_A11,BaR_A11,Tu_S11,T_S11,Uu_S11,U_S11,P_S11,T1_A11
2021-07-07T02:00:00Z,00000200,20000000,,,,,,,-000.06,-000.39,0000.11,19.2,26.2,03.2,02.1,0658.8,31.2
2021-07-07T02:01:00Z,00000200,20000000,,,,,,,0000.14,0000.16,-000.31,19.2,26.2,03.2,02.1,0658.8,31.2
2021-07-07T02:02:00Z,00000200,20000000,,,,,,,-000.10,-000.19,-000.06,19.2,26.2,03.0,01.9,0658.8,31.2
2021-07-07T02:03:00Z,00000200,60000000,,,,,,,-000.15,-000.11,0000.12,19.2,26.2,02.9,01.9,0658.8,31.2
2021-07-07T02:04:00Z,00000200,40000000,0000.04,-000.13,-000.19,-000.00,0000.31,-000.11,0000.15,0000.23,-000.04,19.1,25.9,02.9,01.9,0659.7,31.2
2021-07-07T02:05:00Z,00000200,00000000,0000.09,0000.29,0000.20,0000.18,-000.17,-000.02,0000.19,0000.19,0000.53,19.1,25.8,03.0,02.0,0659.8,31.2
2021-07-07T02:06:00Z,00000200,00000000,0000.13,0000.51,0000.24,0000.11,-000.22,0000.13,-000.09,0000.30,0000.08,19.2,25.8,03.0,02.0,0659.8,31.2
2021-07-07T02:07:00Z,00000200,00000000,-000.19,0000.08,0000.03,0000.12,0000.02,-000.39,0000.27,0000.19,0000.20,19.2,25.8,03.0,02.0,0659.8,31.2
2021-07-07T02:08:00Z,00000200,00000000,0000.27,0000.23,0000.02,-000.39,-000.22,-000.07,-000.47,-000.24,-000.31,19.3,25.8,02.9,01.9,0659.8,31.2
2021-07-07T02:09:00Z,00000200,00000000,0000.59,-000.05,0000.04,0000.14,-000.02,0000.02,0000.28,-000.19,-000.24,19.4,25.9,02.8,01.9,0659.8,31.2
2021-07-07T02:10:00Z,00000200,00000000,0000.18,-000.08,0000.30,-000.01,0000.07,0000.18,-000.60,-000.30,-000.04,19.5,25.9,02.7,01.8,0659.8,31.2
2021-07-07T02:11:00Z,00000200,00000000,0000.07,0000.34,0000.23,-000.35,0000.19,-000.04,0000.41,0000.04,0000.36,19.5,26.0,02.6,01.8,0659.8,31.2
2021-07-07T02:12:00Z,00000200,00000000,0000.05,0000.51,0000.08,0000.17,0000.13,-000.01,-000.32,-000.31,-000.51,19.6,26.0,02.6,01.7,0659.8,31.2
2021-07-07T02:13:00Z,00000200,00000000,0000.54,0000.16,-000.08,-000.07,0000.20,-000.04,0000.37,0000.43,0000.05,19.5,25.9,02.5,01.7,0659.8,31.2
2021-07-07T02:14:00Z,00000200,00000000,0000.37,0000.56,0000.28,-000.24,0000.11,-000.10,-000.20,-000.05,0000.15,19.4,25.9,02.6,01.8,0659.8,31.2
2021-07-07T02:15:00Z,00000200,00000000,0000.59,0000.40,0000.01,0000.36,-000.04,-000.00,0000.31,0000.17,-000.04,19.4,25.9,02.8,01.9,0659.8,31.2
2021-07-07T02:16:00Z,00000200,00000000,0000.44,0000.47,-000.21,-000.63,-000.08,-000.06,0000.06,0000.13,0000.16,19.3,25.8,02.8,01.9,0659.8,31.2
2021-07-07T02:17:00Z,00000200,00000000,0000.06,0000.18,0000.30,0000.41,-000.07,-000.07,0000.05,0000.30,0000.06,19.3,25.8,02.9,01.9,0659.8,31.2
2021-07-07T02:18:00Z,00000200,00000000,0000.71,0000.44,-000.13,-000.17,-000.08,-000.26,0000.08,-000.46,-000.10,19.2,25.7,02.7,01.8,0659.8,31.2
2021-07-07T02:19:00Z,00000200,00000000,0000.97,0000.24,0000.24,-000.13,-000.08,-000.13,-000.35,-000.31,-000.25,19.1,25.7,02.6,01.8,0659.8,31.2
2021-07-07T02:20:00Z,00000200,00000000,0001.05,0000.14,-000.08,0000.27,0000.09,-000.01,0000.08,0000.35,-000.05,19.1,25.7,02.7,01.8,0659.8,31.2
2021-07-07T02:21:00Z,00000200,00000000,-000.17,0000.08,-000.07,0000.22,0000.18,0000.25,0000.14,-000.07,0000.49,19.2,25.7,02.6,01.7,0659.8,31.2
2021-07-07T02:22:00Z,00000200,00000000,0000.02,-000.01,0000.01,-000.26,-000.02,-000.16,-000.13,0000.57,-000.12,19.2,25.7,02.6,01.8,0659.8,31.2
2021-07-07T02:23:00Z,00000200,00000000,0000.29,0000.22,0000.05,-000.30,0000.10,-000.17,0000.11,-000.19,0000.13,19.3,25.8,02.6,01.8,0659.8,31.2
2021-07-07T02:24:00Z,00000200,00000000,0000.61,0000.11,0000.24,-000.17,-000.13,-000.04,-000.04,-000.24,-000.13,19.4,25.8,02.5,01.7,0659.9,31.2
2021-07-07T02:25:00Z,00000200,00000000,0000.67,-000.02,-000.09,-000.14,-000.04,-000.23,0000.22,0000.43,0000.38,19.5,25.9,02.4,01.7,0659.9,31.2
2021-07-07T02:26:00Z,00000200,00000000,0000.71,0000.24,0000.12,-000.33,-000.31,-000.11,-000.06,-000.02,-000.21,19.6,25.9,02.3,01.6,0659.9,31.3
2021-07-07T02:27:00Z,00000200,00000000,0000.65,0000.26,0000.31,0000.62,0000.07,-000.10,0000.24,-000.26,-000.30,19.6,25.9,02.4,01.6,0659.9,31.3
2021-07-07T02:28:00Z,00000200,00000000,0000.89,0000.08,0000.51,-000.07,0000.13,0000.11,-000.35,0000.08,0000.04,19.7,26.0,02.3,01.6,0659.9,31.3
2021-07-07T02:29:00Z,00000200,00000000,0000.72,0000.27,0000.58,0000.20,0000.07,0000.04,-000.22,-000.23,0000.01,19.7,26.0,02.3,01.6,0659.9,31.3
2021-07-07T02:30:00Z,00000200,00000000,0000.60,0000.21,0000.01,-000.57,0000.27,0000.20,-000.04,0000.05,-000.01,19.7,26.0,02.2,01.5,0659.9,31.3
2021-07-07T02:31:00Z,00000200,00000000,0000.46,0000.32,0000.04,0000.57,0000.19,-000.14,-000.17,-000.10,-000.08,19.6,26.0,02.3,01.5,0659.9,31.2
2021-07-07T02:32:00Z,00000200,00000000,0000.84,-000.01,-000.01,0000.02,0000.15,0000.12,0000.24,-000.05,0000.34,19.6,25.9,02.2,01.5,0659.9,31.2
2021-07-07T02:33:00Z,00000200,00000000,0000.44,0000.12,0000.03,0000.06,0000.11,-000.40,0000.12,0000.17,-000.25,19.5,25.9,02.2,01.5,0659.8,31.2
2021-07-07T02:34:00Z,00000200,00000000,0000.29,0000.14,0000.20,-000.44,0000.05,-000.17,0000.27,0000.13,0000.42,19.4,25.9,02.1,01.4,0659.8,31.2
2021-07-07T02:35:00Z,00000200,00000000,0000.86,0000.61,0000.25,0000.12,-000.17,-000.05,-000.04,0000.16,-000.30,19.4,25.8,02.2,01.5,0659.8,31.2
2021-07-07T02:36:00Z,00000200,00000000,-000.18,0000.41,-000.03,0000.04,0000.30,-000.01,0000.09,-000.39,0000.17,19.4,25.8,02.2,01.5,0659.9,31.2
2021-07-07T02:37:00Z,00000200,00000000,-000.51,0000.19,0000.48,-000.37,0000.17,0000.04,0000.13,0000.18,-000.01,19.5,25.9,02.2,01.5,0659.9,31.2
2021-07-07T02:38:00Z,00000200,00000000,0000.34,0000.28,0000.06,-000.07,0000.15,-000.04,-000.40,-000.07,0000.20,19.6,25.9,02.1,01.4,0659.8,31.2
2021-07-07T02:39:00Z,00000200,00000000,0000.64,0000.17,-000.15,-000.09,-000.16,-000.23,0000.22,0000.13,-000.36,19.6,26.0,02.0,01.4,0659.8,31.2
2021-07-07T02:40:00Z,00000200,00000000,0000.46,0000.49,-000.02,-000.01,0000.23,-000.21,0000.01,0000.28,0000.37,19.7,26.0,02.1,01.5,0659.9,31.2
2021-07-07T02:41:00Z,00000200,00000000,-000.24,0000.22,0000.06,-000.06,0000.18,0000.34,0000.19,-000.36,-000.09,19.7,26.0,02.0,01.4,0659.8,31.3
2021-07-07T02:42:00Z,00000200,00000000,0000.74,-000.16,-000.12,0000.23,0000.12,-000.38,-000.12,0000.10,-000.56,19.7,26.0,02.1,01.4,0659.8,31.2
2021-07-07T02:43:00Z,00000200,00000000,0000.68,0000.36,-000.22,0000.10,0000.25,-000.17,0000.05,-000.08,0000.59,19.6,26.0,02.2,01.5,0659.8,31.2
2021-07-07T02:44:00Z,00000200,01000000,0000.61,0000.12,-000.09,0000.19,0000.17,0000.04,0000.18,0000.28,0000.31,19.5,25.9,02.2,01.5,0659.8,31.2
2021-07-07T02:45:00Z,00000200,00000000,-000.15,0000.44,0000.35,-000.73,-000.04,-000.27,0000.01,0000.20,-000.34,19.5,25.9,02.3,01.5,0659.8,31.2
2021-07-07T02:46:00Z,00000200,00000000,0001.09,0000.33,-000.12,0000.53,0000.05,0000.22,0000.45,0000.43,0000.73,19.4,25.9,02.4,01.6,0659.8,31.2
2021-07-07T02:47:00Z,00000200,00000000,0000.12,0000.22,0000.34,0000.07,0000.12,-000.23,0000.30,0000.46,-000.10,19.4,25.8,02.7,01.8,0659.8,31.2
2021-07-07T02:48:00Z,00000200,00000000,0000.20,0000.02,-000.10,0000.36,-000.12,0000.04,0000.47,0000.23,0000.35,19.3,25.8,02.7,01.8,0659.8,31.2
2021-07-07T02:49:00Z,00000200,00000000,0000.16,0000.39,-000.02,-000.67,0000.02,-000.26,0000.90,0000.41,0000.59,19.3,25.8,03.0,02.0,0659.7,31.2
2021-07-07T02:50:00Z,00000200,00000000,0000.78,0000.09,0000.55,0000.23,-000.34,0000.22,0000.08,-000.06,0000.13,19.3,25.7,03.2,02.2,0659.7,31.2
2021-07-07T02:51:00Z,00000200,00000000,0000.16,0000.00,-000.24,0000.22,-000.02,-000.12,0000.14,0000.37,0000.21,19.3,25.7,03.3,02.2,0659.8,31.2
2021-07-07T02:52:00Z,00000200,00000000,-000.00,0000.27,-000.03,-000.16,0000.05,0000.06,0000.10,0000.32,0000.10,19.3,25.8,03.2,02.2,0659.8,31.2
2021-07-07T02:53:00Z,00000200,00000000,0000.13,0000.19,-000.22,-000.14,-000.27,-000.15,0000.19,-000.02,0000.21,19.4,25.8,03.2,02.2,0659.9,31.2
2021-07-07T02:54:00Z,00000200,00000000,0000.51,0000.35,0000.03,-000.15,-000.12,-000.09,0000.51,0000.88,0000.40,19.5,25.8,03.4,02.3,0659.8,31.2
2021-07-07T02:55:00Z,00000200,00000000,0000.54,0000.38,0000.23,0000.10,-000.08,0000.14,0000.33,0000.07,-000.12,19.6,25.9,03.7,02.5,0659.9,31.2
2021-07-07T02:56:00Z,00000200,00000000,0000.68,0000.04,0000.22,0000.05,0000.51,-000.11,-000.19,0000.06,-000.20,19.7,25.9,03.5,02.4,0659.8,31.2
2021-07-07T02:57:00Z,00000200,40000000,,,,,,,0000.08,-000.43,-000.15,19.8,26.0,03.5,02.4,0659.8,31.2
2021-07-07T02:58:00Z,00000200,60000000,,,,,,,-000.21,0000.19,0000.29,19.5,26.1,03.2,02.1,0658.8,31.2
2021-07-07T02:59:00Z,00000200,20000000,,,,,,,0000.09,-000.15,-000.03,19.4,26.2,03.2,02.1,0658.8,31.2
